Weather History for KRDK - November, 2013

Change the Weather History Date:

Tuesday, November 26, 2013

  Actual Average Record
Temperature  
Mean Temperature 24 °F -  
Max Temperature 32 °F 43 °F 71 °F (1990)
Min Temperature 15 °F 25 °F 3 °F (1993)
Degree Days  
Heating Degree Days 42    
Moisture  
Dew Point 16 °F    
Average Humidity 68    
Maximum Humidity 93    
Minimum Humidity 40    
Precipitation  
Precipitation 0.00 in - - ()
Sea Level Pressure  
Sea Level Pressure 30.30 in    
Wind  
Wind Speed 11 mph (NW)    
Max Wind Speed 24 mph    
Max Gust Speed 33 mph    
Visibility 10 miles    
Events      
Averages and records for this station are not official NWS values.
T = Trace of Precipitation, MM = Missing Value Source: NWS Daily Summary

Daily Weather History Graph

Daily Weather History Graph

Search for Another Location

Airport or City:

Trip Planner

Search our weather history database for the weather conditions in past years. The results will help you decide how hot, cold, wet, or windy it might be!

Date:

Astronomy

Nov. 26, 2013 Rise Set
Actual Time 7:21 AM CST 4:55 PM CST
Civil Twilight 6:51 AM CST 5:25 PM CST
Nautical Twilight 6:17 AM CST 5:59 PM CST
Astronomical Twilight 5:44 AM CST 6:32 PM CST
Moon 12:22 AM CST (11/26) 1:05 PM CST (11/26)
Length of Visible Light 10h 34m
Length of Day
9h 33m
Last Quarter, 41% of the Moon is Illuminated
Nov 26
Last Quarter
Dec 2
New
Dec 9
First Quarter
Dec 17
Full
Dec 25
Last Quarter

Hourly Weather History & Observations

Time (CST) Temp. Windchill Dew Point Humidity Pressure Visibility Wind Dir Wind Speed Gust Speed Precip Events Conditions
12:15 AM 30.2 °F 23.4 °F 24.8 °F 80% 30.19 in 10.0 mi WNW 6.9 mph - N/A   Scattered Clouds
12:35 AM 30.2 °F 23.4 °F 24.8 °F 80% 30.19 in 10.0 mi WNW 6.9 mph - N/A   Overcast
12:55 AM 28.4 °F 20.4 °F 24.8 °F 86% 30.19 in 10.0 mi WNW 8.1 mph - N/A   Overcast
1:15 AM 28.4 °F 22.2 °F 24.8 °F 86% 30.18 in 10.0 mi WNW 5.8 mph - N/A   Unknown
1:35 AM 28.4 °F 21.2 °F 24.8 °F 86% 30.19 in 10.0 mi NW 6.9 mph - N/A   Unknown
1:55 AM 28.4 °F 21.2 °F 24.8 °F 86% 30.19 in 10.0 mi WNW 6.9 mph - N/A   Unknown
2:15 AM 28.4 °F 21.2 °F 24.8 °F 86% 30.19 in 10.0 mi NW 6.9 mph - N/A   Unknown
2:35 AM 28.4 °F 22.2 °F 24.8 °F 86% 30.19 in 10.0 mi WNW 5.8 mph - N/A   Unknown
2:55 AM 24.8 °F 16.9 °F 23.0 °F 93% 30.19 in 10.0 mi WNW 6.9 mph - N/A   Scattered Clouds
3:15 AM 24.8 °F 16.9 °F 23.0 °F 93% 30.19 in 10.0 mi NW 6.9 mph - N/A   Clear
3:35 AM 24.8 °F 15.3 °F 23.0 °F 93% 30.18 in 10.0 mi NW 9.2 mph - N/A   Clear
3:55 AM 24.8 °F 16.9 °F 23.0 °F 93% 30.18 in 10.0 mi WNW 6.9 mph - N/A   Clear
4:15 AM 24.8 °F 16.9 °F 21.2 °F 86% 30.18 in 10.0 mi NW 6.9 mph - N/A   Clear
4:35 AM 24.8 °F 15.3 °F 23.0 °F 93% 30.18 in 10.0 mi NW 9.2 mph - N/A   Unknown
4:55 AM 24.8 °F 15.3 °F 21.2 °F 86% 30.19 in 10.0 mi NW 9.2 mph - N/A   Unknown
5:15 AM 24.8 °F 16.9 °F 21.2 °F 86% 30.20 in 10.0 mi NW 6.9 mph - N/A   Clear
5:35 AM 26.6 °F 16.8 °F 21.2 °F 80% 30.20 in 10.0 mi NW 10.4 mph 17.3 mph N/A   Clear
5:55 AM 26.6 °F 16.2 °F 21.2 °F 80% 30.21 in 10.0 mi NNW 11.5 mph - N/A   Mostly Cloudy
6:15 AM 28.4 °F 18.5 °F 23.0 °F 80% 30.22 in 10.0 mi NNW 11.5 mph - N/A   Overcast
6:35 AM 28.4 °F 20.4 °F 23.0 °F 80% 30.23 in 10.0 mi NNW 8.1 mph - N/A   Overcast
6:55 AM 28.4 °F 21.2 °F 23.0 °F 80% 30.24 in - North 6.9 mph - N/A   Overcast
7:15 AM 28.4 °F 21.2 °F 23.0 °F 80% 30.24 in 10.0 mi NNW 6.9 mph - N/A   Overcast
7:35 AM 28.4 °F 18.5 °F 23.0 °F 80% 30.25 in 10.0 mi NW 11.5 mph - N/A   Overcast
7:55 AM 30.2 °F 20.2 °F 23.0 °F 75% 30.25 in 10.0 mi NW 12.7 mph - N/A   Overcast
8:15 AM 30.2 °F 19.3 °F 24.8 °F 80% 30.26 in 10.0 mi NW 15.0 mph - N/A   Overcast
8:35 AM 30.2 °F 19.8 °F 24.8 °F 80% 30.27 in 10.0 mi NNW 13.8 mph 20.7 mph N/A   Overcast
8:55 AM 30.2 °F 18.9 °F 24.8 °F 80% 30.28 in 10.0 mi NNW 16.1 mph 23.0 mph N/A   Overcast
9:15 AM 30.2 °F 18.5 °F 23.0 °F 75% 30.29 in 10.0 mi NNW 17.3 mph 26.5 mph N/A   Scattered Clouds
9:35 AM 32.0 °F 20.8 °F 23.0 °F 69% 30.29 in 10.0 mi NNW 17.3 mph 28.8 mph N/A   Clear
9:55 AM 32.0 °F 19.2 °F 21.2 °F 64% 30.30 in 10.0 mi NNW 23.0 mph 32.2 mph N/A   Scattered Clouds
10:15 AM 32.0 °F 20.1 °F 21.2 °F 64% 30.31 in 10.0 mi North 19.6 mph 28.8 mph N/A   Scattered Clouds
10:35 AM 32.0 °F 19.5 °F 19.4 °F 60% 30.32 in 10.0 mi North 21.9 mph 28.8 mph N/A   Mostly Cloudy
10:55 AM 32.0 °F 20.5 °F 19.4 °F 60% 30.32 in 10.0 mi NNW 18.4 mph 26.5 mph N/A   Mostly Cloudy
11:15 AM 32.0 °F 20.8 °F 19.4 °F 60% 30.32 in 10.0 mi North 17.3 mph 29.9 mph N/A   Scattered Clouds
11:35 AM 30.2 °F 17.1 °F 17.6 °F 60% 30.32 in 10.0 mi North 21.9 mph 29.9 mph N/A   Partly Cloudy
11:55 AM 30.2 °F 16.5 °F 14.0 °F 51% 30.33 in 10.0 mi NNW 24.2 mph 32.2 mph N/A   Clear
12:15 PM 28.4 °F 14.4 °F 14.0 °F 55% 30.32 in 10.0 mi NNW 23.0 mph 32.2 mph N/A   Clear
12:35 PM 30.2 °F 16.8 °F 14.0 °F 51% 30.32 in 10.0 mi NNW 23.0 mph 33.4 mph N/A   Partly Cloudy
12:55 PM 30.2 °F 18.9 °F 14.0 °F 51% 30.32 in 10.0 mi North 16.1 mph 29.9 mph N/A   Scattered Clouds
1:15 PM 30.2 °F 17.4 °F 14.0 °F 51% 30.32 in 10.0 mi North 20.7 mph 31.1 mph N/A   Mostly Cloudy
1:35 PM 30.2 °F 16.8 °F 14.0 °F 51% 30.32 in 10.0 mi North 23.0 mph 28.8 mph N/A   Partly Cloudy
1:55 PM 30.2 °F 18.5 °F 14.0 °F 51% 30.32 in 10.0 mi NNW 17.3 mph 24.2 mph N/A   Mostly Cloudy
2:15 PM 28.4 °F 16.2 °F 14.0 °F 55% 30.31 in 10.0 mi NNW 17.3 mph 28.8 mph N/A   Overcast
2:35 PM 28.4 °F 15.1 °F 14.0 °F 55% 30.31 in 10.0 mi North 20.7 mph - N/A   Overcast
2:55 PM 28.4 °F 15.1 °F 12.2 °F 51% 30.32 in 10.0 mi North 20.7 mph - N/A   Mostly Cloudy
3:15 PM 28.4 °F 15.8 °F 8.6 °F 43% 30.32 in 10.0 mi North 18.4 mph - N/A   Partly Cloudy
3:35 PM 28.4 °F 16.2 °F 8.6 °F 43% 30.33 in 10.0 mi North 17.3 mph 23.0 mph N/A   Clear
3:55 PM 28.4 °F 15.4 °F 6.8 °F 40% 30.34 in 10.0 mi NNW 19.6 mph 28.8 mph N/A   Clear
4:15 PM 28.4 °F 16.2 °F 6.8 °F 40% 30.34 in 10.0 mi NNW 17.3 mph 26.5 mph N/A   Clear
4:35 PM 26.6 °F 14.3 °F 6.8 °F 43% 30.35 in 10.0 mi North 16.1 mph - N/A   Clear
4:55 PM 26.6 °F 15.2 °F 6.8 °F 43% 30.36 in 10.0 mi North 13.8 mph 21.9 mph N/A   Clear
5:15 PM 24.8 °F 12.9 °F 6.8 °F 46% 30.36 in 10.0 mi North 13.8 mph - N/A   Clear
5:35 PM 24.8 °F 15.3 °F 6.8 °F 46% 30.37 in 10.0 mi NNW 9.2 mph - N/A   Clear
5:55 PM 23.0 °F 13.9 °F 6.8 °F 50% 30.37 in 10.0 mi NNW 8.1 mph - N/A   Clear
6:15 PM 21.2 °F 11.7 °F 8.6 °F 58% 30.38 in 10.0 mi NNW 8.1 mph - N/A   Clear
6:35 PM 21.2 °F 10.9 °F 8.6 °F 58% 30.38 in 10.0 mi NNW 9.2 mph - N/A   Clear
6:55 PM 21.2 °F 12.6 °F 8.6 °F 58% 30.38 in 10.0 mi NNW 6.9 mph - N/A   Clear
7:15 PM 21.2 °F 11.7 °F 8.6 °F 58% 30.39 in 10.0 mi NNW 8.1 mph - N/A   Unknown
7:35 PM 19.4 °F 8.6 °F 8.6 °F 63% 30.39 in 10.0 mi NNW 9.2 mph - N/A   Clear
7:55 PM 19.4 °F 8.6 °F 8.6 °F 63% 30.39 in 10.0 mi NNW 9.2 mph - N/A   Clear
8:15 PM 17.6 °F 9.3 °F 8.6 °F 68% 30.40 in 10.0 mi NW 5.8 mph - N/A   Clear
8:35 PM 17.6 °F 7.3 °F 8.6 °F 68% 30.40 in 10.0 mi NW 8.1 mph - N/A   Clear
8:55 PM 19.4 °F 10.4 °F 8.6 °F 63% 30.39 in 10.0 mi NW 6.9 mph 12.7 mph N/A   Clear
9:15 PM 17.6 °F 5.7 °F 8.6 °F 68% 30.40 in 10.0 mi NW 10.4 mph - N/A   Clear
9:35 PM 17.6 °F 5.7 °F 8.6 °F 68% 30.40 in 10.0 mi NW 10.4 mph - N/A   Clear
9:55 PM 17.6 °F 6.4 °F 8.6 °F 68% 30.40 in 10.0 mi NW 9.2 mph - N/A   Clear
10:15 PM 17.6 °F 5.7 °F 8.6 °F 68% 30.40 in 10.0 mi NW 10.4 mph - N/A   Clear
10:35 PM 17.6 °F 7.3 °F 8.6 °F 68% 30.40 in 10.0 mi NW 8.1 mph - N/A   Clear
10:55 PM 15.8 °F 4.2 °F 8.6 °F 73% 30.40 in 10.0 mi NW 9.2 mph - N/A   Clear
11:15 PM 15.8 °F 3.4 °F 8.6 °F 73% 30.40 in 10.0 mi NW 10.4 mph - N/A   Clear
11:35 PM 15.8 °F 3.4 °F 8.6 °F 73% 30.40 in 10.0 mi NW 10.4 mph - N/A   Clear
11:55 PM 17.6 °F 7.3 °F 8.6 °F 68% 30.41 in 10.0 mi NW 8.1 mph - N/A   Clear